Location: Auckland
(36.8670°S, 174.7670°E)
Time: 14:57:04
(UTC+13:00)

Cosmos 2219 Rocket - Pass Details

Date: 13 November 2019
Orbit: 827 x 847 km, 71.0° (Epoch: 07 December)

Event Time Altitude Azimuth Distance (km) Brightness Sun altitude
Rises 20:38:22 0° 195° (SSW) 3,417 6.1 -6.7°
Reaches altitude 10° 20:41:00 10° 187° (S) 2,473 5.2 -7.2°
Maximum altitude 20:46:20 41° 118° (ESE) 1,210 2.8 -8.1°
Enters shadow 20:51:29 10° 48° (NE) 2,405 3.9 -9.0°
